AO-07 1 07530U 74089B 17040.15497782 -.00000045 00000-0 -35140-5 0 9997 2 07530 101.6129 11.4538 0011817 209.7015 218.5481 12.53625414932816 UO-11 1 14781U 84021B 17040.16228482 .00000074 00000-0 15408-4 0 9994 2 14781 97.7165 90.4676 0007095 256.6932 103.3491 14.82855654771378 LO-19 1 20442U 90005G 17040.07458322 -.00000004 00000-0 14477-4 0 9991 2 20442 98.5660 337.9622 0012047 160.9743 199.1894 14.32848049413275 HUBBLE 1 20580U 90037B 17040.48683509 .00000478 00000-0 18512-4 0 9999 2 20580 28.4697 131.2760 0002513 238.1573 244.4573 15.08666242270988 MET-2/21 1 22782U 93055A 17040.17656103 -.00000009 00000-0 -21282-4 0 9994 2 22782 82.5501 125.1829 0023630 71.6852 306.5727 13.83798313183991 AO-27 1 22825U 93061C 17040.14729354 -.00000001 00000-0 17282-4 0 9991 2 22825 98.7950 4.2761 0008276 353.0728 7.0338 14.29985268219108 IO-26 1 22826U 93061D 17039.85792156 -.00000007 00000-0 14666-4 0 9997 2 22826 98.7891 4.0809 0008641 343.9299 16.1608 14.30312744219231 FO-29 1 24278U 96046B 17039.94281180 -.00000061 00000-0 -22519-4 0 9993 2 24278 098.5812 300.1461 0349679 309.7256 047.3543 13.53074620011282 NOAA-15 1 25338U 98030A 17040.49395425 .00000020 00000-0 27390-4 0 9991 2 25338 98.7848 51.1319 0010017 212.8059 147.2499 14.25776680974803 GO-32 1 25397U 98043D 17040.84143291 -.00000017 00000-0 11402-4 0 9995 2 25397 98.5969 345.9541 0001892 46.4108 313.7227 14.23614563965671 ISS 1 25544U 98067A 17040.92919821 .00003611 00000-0 61332-4 0 9993 2 25544 51.6454 312.7034 0007430 172.2834 293.1392 15.54335080 41961 NO-44 1 26931U 01043C 17040.85572840 -.00000029 00000-0 20707-4 0 9992 2 26931 67.0508 59.7251 0007056 281.1882 78.8426 14.30446113802132 SO-50 1 27607U 02058C 17040.42972659 -.00000005 00000-0 19786-4 0 9994 2 27607 64.5556 155.9533 0039298 154.1069 206.2011 14.75280888760267 CO-55 1 27844U 03031E 17039.94627673 .00000059 00000-0 46679-4 0 9996 2 27844 098.6918 050.8082 0009744 004.8988 355.2283 14.22013487706050 CO-57 1 27848U 03031J 17040.54487360 .00000043 00000-0 39319-4 0 9991 2 27848 98.7013 51.6012 0009799 12.2666 347.8748 14.21631385706065 RS-22 1 27939U 03042A 17040.87895994 .00000071 00000-0 21130-4 0 9999 2 27939 97.9179 189.8775 0011679 270.0514 242.7760 14.66518774714652 NOAA-18 1 28654U 05018A 17040.53546587 .00000024 00000-0 38564-4 0 9990 2 28654 99.1916 59.5715 0015180 71.3904 288.8914 14.12324406604246 CO-58 1 28895U 05043F 17040.10440903 .00000154 00000-0 38400-4 0 9996 2 28895 97.8483 208.4127 0016822 184.5619 175.5434 14.63338920601757 CO-65 1 32785U 08021C 17039.85667719 .00000236 00000-0 31488-4 0 9994 2 32785 97.5792 69.9103 0012038 229.1754 130.8420 14.87791247475811 AAUSAT2 1 32788U 08021F 17040.15646489 .00000178 00000-0 21971-4 0 9994 2 32788 97.5752 80.8706 0011778 191.7613 168.3334 14.93673743476569 DO-64 1 32789U 08021G 17039.93958170 .00000669 00000-0 52256-4 0 9997 2 32789 097.5762 100.8047 0013304 170.9076 189.2393 15.04369840477483 CO-66 1 32791U 08021J 17040.66145816 .00000243 00000-0 30651-4 0 9990 2 32791 97.5778 74.6404 0012752 211.6843 148.3609 14.90084263476155 RS-30 1 32953U 08025A 17040.87577361 .00000006 00000-0 -29344-4 0 9996 2 32953 82.5057 318.8329 0018171 201.5462 158.4855 12.43074591395608 PRISM 1 33493U 09002B 17040.70882745 .00000062 00000-0 11389-4 0 9990 2 33493 98.1862 277.6369 0015753 138.9063 221.3354 14.95445005436728 NOAA-19 1 33591U 09005A 17040.52244289 .00000079 00000-0 68191-4 0 9998 2 33591 99.0756 5.6523 0013007 271.9658 88.0024 14.12151520412639 TISAT-1 1 36799U 10035E 17040.10571602 .00000297 00000-0 36652-4 0 9991 2 36799 98.0463 160.3874 0013016 33.5719 326.6320 14.90218200356704 JUGNU 1 37839U 11058B 17039.66554407 .00000313 00000-0 24717-4 0 9994 2 37839 19.9608 149.7548 0018796 206.6355 291.4045 14.12570831275507 SRMSAT 1 37841U 11058D 17039.75599912 .00000305 00000-0 22390-4 0 9993 2 37841 19.9708 188.2492 0011864 110.0408 22.4413 14.10563959275123 AO-71 1 37854U 11061E 17039.44385401 .00001253 00000-0 75290-4 0 9993 2 37854 101.7071 207.5545 0169203 95.8718 266.1808 15.03593441287589 HRBE 1 37855U 11061F 17040.76287848 .00001055 00000-0 63615-4 0 9995 2 37855 101.7187 207.4350 0182325 97.7256 264.4699 15.02545460287653 ALMASAT-1 1 38078U 12006B 17039.88971607 .00017553 35331-5 21928-3 0 9997 2 38078 69.4420 116.0895 0331518 119.4296 244.0385 15.15983154265300 HORYU-2 1 38340U 12025D 17040.64666503 .00000217 00000-0 40149-4 0 9998 2 38340 98.3731 40.1034 0011292 343.7407 16.3437 14.75247176254487 RS-40 1 38735U 12041C 17040.83163442 -.00000003 00000-0 -89093-4 0 9995 2 38735 82.4735 43.5936 0015860 308.5132 51.4525 12.42573320205872 BEESAT-3 1 39134U 13015E 17040.50159000 .00001085 00000-0 53684-4 0 9996 2 39134 64.8707 278.4092 0027017 303.7516 56.1553 15.17248287210102 BEESAT-2 1 39136U 13015G 17040.83028267 .00000695 00000-0 47643-4 0 9998 2 39136 64.8699 286.3256 0026075 299.8772 59.9762 15.14646181209985 ZACUBE-1 1 39417U 13066B 17040.70667008 .00000212 00000-0 33577-4 0 9990 2 39417 97.6479 89.0151 0058575 328.0607 31.7060 14.80614520173917 TRITON-1 1 39427U 13066M 17039.65555417 .00000210 00000-0 41500-4 0 9996 2 39427 97.6465 63.5754 0115408 41.0530 319.9290 14.67373397172199 GOMX-1 1 39430U 13066Q 17040.80181242 .00000210 00000-0 46723-4 0 9992 2 39430 97.6635 49.5710 0153513 85.4025 276.4691 14.58781434171363 LO-74 1 39440U 13066AA 17040.13410910 .00000203 00000-0 35626-4 0 9998 2 39440 97.6447 78.6717 0080682 356.8180 3.2506 14.75360994173218 AO-73 1 39444U 13066AE 17040.14048627 .00000252 00000-0 38105-4 0 9994 2 39444 97.6494 89.3671 0057677 327.1308 32.6323 14.81326319172653 SPROUT 1 39770U 14029E 17040.77305302 .00000717 00000-0 88232-4 0 9993 2 39770 97.8702 141.4566 0009834 32.9330 327.2502 14.85969794147210 DUCHIFAT-1 1 40021U 14033M 17039.81353028 .00000439 00000-0 51802-4 0 9994 2 40021 97.9242 312.7685 0013500 10.3408 349.8084 14.89712832143480 NANOSATCBR1 1 40024U 14033Q 17040.69927542 .00000375 00000-0 45767-4 0 9995 2 40024 97.9206 312.7363 0012693 8.4191 351.7236 14.89063969143576 EO-79 1 40025U 14033R 17040.81353088 .00000267 00000-0 34944-4 0 9993 2 40025 97.9194 312.0733 0012902 10.4017 349.7464 14.88297069143546 DTUSAT-2 1 40030U 14033W 17040.71939760 .00000259 00000-0 34339-4 0 9994 2 40030 97.9164 311.2186 0012203 5.3780 354.7565 14.87922917143494 EO-80 1 40032U 14033Y 17039.81447969 .00000285 00000-0 37288-4 0 9995 2 40032 97.9173 310.3231 0012256 8.6516 351.4909 14.87856594143356 ANTELSAT 1 40034U 14033AA 17039.74940308 .00000245 00000-0 44404-4 0 9998 2 40034 97.8771 287.5275 0058989 347.2560 12.7153 14.73603125142013 VELOX-1 1 40057U 14034E 17040.87370519 .00000395 00000-0 63647-4 0 9997 2 40057 98.1877 139.2238 0012449 106.1909 254.0652 14.76995842140961 DAURIA DX 1 1 40071U 14037C 17040.70720396 .00000137 00000-0 25065-4 0 9996 2 40071 98.3297 146.8006 0009777 100.8809 259.3505 14.80956683140108 UKUBE-1 1 40074U 14037F 17040.87660034 .00000398 00000-0 55635-4 0 9994 2 40074 98.3368 150.1858 0005991 101.4008 258.7876 14.83369997140300 HODOYOSHI-1 1 40299U 14070B 17040.79129505 .00000832 00000-0 39446-4 0 9999 2 40299 97.4120 125.4434 0013269 173.0580 300.7734 15.21975591125565 CHUBUSAT-1 1 40300U 14070C 17040.76944971 .00000938 00000-0 45826-4 0 9997 2 40300 97.4057 122.9654 0020572 183.5564 290.3253 15.20547375125425 QSAT-EOS 1 40301U 14070D 17040.73249021 .00002203 00000-0 97082-4 0 9997 2 40301 97.3990 122.6689 0027925 182.2963 303.7512 15.22541971125430 FIREBIRD FU3 1 40377U 15003B 17040.13910766 .00001547 00000-0 70562-4 0 9996 2 40377 99.1100 198.7159 0139334 66.5910 294.9898 15.14541563111628 FIREBIRD FU4 1 40378U 15003C 17040.85982367 .00001531 00000-0 69825-4 0 9995 2 40378 99.1104 199.6063 0139509 64.1383 297.4154 15.14564920111736 GRIFEX 1 40379U 15003D 17040.84611906 .00001354 00000-0 65441-4 0 9996 2 40379 99.1117 197.8952 0144837 70.1824 291.4950 15.12323860111636 NO-84 1 40654U 15025D 17040.38666786 .00008639 00000-0 17525-3 0 03593 2 40654 054.9982 086.7806 0187088 305.5028 052.8612 15.30705300060305 NO-83 1 40655U 15025E 17040.36371797 .00013878 00000-0 23691-3 0 03960 2 40655 054.9859 070.2017 0161137 314.9895 043.8049 15.38478516060515 DEORBITSAIL 1 40719U 15032E 17040.73931757 .00000367 00000-0 60772-4 0 9998 2 40719 97.9949 295.9943 0016104 189.1081 170.9839 14.75900110 85526 NUDT-PHONESAT 1 40900U 15049B 17040.83654035 .00001970 00000-0 98414-4 0 9995 2 40900 97.4443 50.6301 0013076 314.8855 45.1316 15.18591975 77120 XW-2A 1 40903U 15049E 17040.76219239 .00001732 00000-0 48443-4 0 9996 2 40903 97.4324 64.8767 0015428 10.5218 349.6347 15.38002297 78055 XW-2C 1 40906U 15049H 17040.84837667 .00000667 00000-0 39997-4 0 9999 2 40906 97.4549 48.9108 0013918 298.7342 61.2491 15.14245627 76964 XW-2D 1 40907U 15049J 17040.70749968 .00000728 00000-0 43216-4 0 9998 2 40907 97.4517 48.5696 0013262 297.4912 62.4972 15.14329366 76947 LILACSAT-2 1 40908U 15049K 17040.84646931 .00000372 00000-0 24731-4 0 9996 2 40908 97.4618 48.5917 0014738 293.3460 66.6221 15.12941597 76912 XW-2F 1 40910U 15049M 17040.84426725 .00001030 00000-0 58461-4 0 9995 2 40910 97.4541 49.1930 0014126 294.7963 65.1800 15.15075040 76872 XW-2B 1 40911U 15049N 17040.84286550 .00000692 00000-0 41330-4 0 9996 2 40911 97.4562 49.0114 0013159 297.3340 62.6552 15.14298731 76860 DCBB 1 40912U 15049P 17040.81920200 .00001763 00000-0 92089-4 0 9998 2 40912 97.4526 50.6401 0014389 288.5002 195.8269 15.17128067 76974 TW-1C 1 40926U 15051B 17040.78396707 .00006535 00000-0 16260-3 0 9999 2 40926 97.2466 81.4025 0010868 271.5327 178.3477 15.40557529 77292 TW-1A 1 40928U 15051D 17040.82087634 .00003216 00000-0 96838-4 0 9995 2 40928 97.2438 78.9041 0011690 301.3142 145.5617 15.35011365 77157 IO-86 1 40931U 15052B 17040.64785407 .00000745 00000-0 14771-4 0 9993 2 40931 5.9991 62.0849 0013001 241.0995 118.8093 14.76510685 74088 GomX-3 1 40949U 98067HA 16292.18357804 .08527750 12374-4 77882-3 0 9992 2 40949 51.6055 106.7696 0006699 286.1344 73.8944 16.38002265 59645 LQSat 1 40958U 15057A 17040.74017453 .00000024 00000-0 11462-4 0 9991 2 40958 97.9906 118.2158 0019403 112.4187 247.9074 14.72941530 72351 AO-85 1 40967U 15058D 17040.53256362 .00000230 00000-0 45690-4 0 03952 2 40967 064.7759 246.0602 0176623 125.1647 236.6148 14.75309458058286 ATHENOXAT-1 1 41168U 15077C 17040.42899328 .00002580 00000-0 11057-3 0 9999 2 41168 14.9893 22.4196 0012205 47.6145 33.3206 15.11078284 63684 ChubuSat-2 1 41338U 16012B 17039.82831099 .00000386 00000-0 23613-4 0 9995 2 41338 31.0023 207.4158 0014074 229.6848 130.2558 14.99637916 53706 ChubuSat-3 1 41339U 16012C 17040.77267865 .00000448 00000-0 28387-4 0 9998 2 41339 31.0109 200.7729 0013945 245.5460 114.3752 14.99852361 53820 Horyu-4 1 41340U 16012D 17040.46605211 .00000538 00000-0 34938-4 0 9996 2 41340 31.0043 201.0261 0014423 249.3664 110.5424 15.00427042 53814 OUFTI-1 1 41458U 16025C 17040.27606407 .00002729 00000-0 15128-3 0 9990 2 41458 98.2009 70.4771 0175901 357.3367 2.6902 15.02524368 43366 e-st@r-II 1 41459U 16025D 17040.81829823 .00002444 00000-0 13635-3 0 9995 2 41459 98.1995 71.0244 0176195 355.4845 4.4777 15.02414184 43441 AAUSAT4 1 41460U 16025E 17040.88125101 .00003324 00000-0 18450-3 0 9990 2 41460 98.1940 71.1423 0169648 354.2407 5.6821 15.03072945 43460 MinXSS 1 41474U 98067HU 17040.09876413 .00052984 00000-0 31820-3 0 9995 2 41474 51.6448 296.8802 0000419 204.9828 155.1152 15.77218118 42043 CADRE 1 41475U 98067HV 17003.74787607 .12518598 12537-4 55989-3 0 9998 2 41475 51.6110 110.0165 0004040 312.3134 47.7551 16.43344525 36494 NODES 1 1 41477U 98067HX 17040.88067677 .00022184 00000-0 19119-3 0 9995 2 41477 51.6362 298.2857 0000424 285.7485 74.3465 15.69193866 42007 NODES 2 1 41478U 98067HY 17040.89552367 .00021628 00000-0 18804-3 0 9994 2 41478 51.6362 298.3831 0000370 289.4075 70.6882 15.68997588 42001 LO-87 1 41557U 16033B 17040.80255201 .00001221 00000-0 49464-4 0 9997 2 41557 97.4743 120.3051 0016115 96.6655 263.6418 15.26514921 38996 NuSat2 1 41558U 16033C 17040.82521524 .00001248 00000-0 50701-4 0 9999 2 41558 97.4768 120.3600 0015614 95.3502 264.9518 15.26389348 38992 Lapan A3 1 41603U 16040E 17040.80795873 .00000168 00000-0 11222-4 0 9991 2 41603 97.4798 104.1964 0014064 152.6644 344.2366 15.19257526 35311 Swayam 1 41607U 16040J 17040.85301729 .00001413 00000-0 68316-4 0 9993 2 41607 97.4780 104.3223 0015302 156.1116 204.0832 15.20179092 35252 Pratham 1 41783U 16059A 17040.72839013 .00000040 00000-0 17287-4 0 9992 2 41783 98.1851 103.3106 0033345 198.3469 161.6533 14.62803027 19962 AlSat 1N 1 41789U 16059G 17040.82193621 .00000073 00000-0 23107-4 0 9991 2 41789 98.1847 103.6601 0028013 192.6240 167.4258 14.64005552 19974 ScatSat 1 41790U 16059H 17040.19692276 .00000031 00000-0 18710-4 0 9991 2 41790 98.0844 95.5400 0011474 174.6010 185.5310 14.50092834 19712 TY-1 1 41844U 16066D 17040.85865949 -.00000070 00000-0 00000 0 0 9993 2 41844 97.4053 49.9623 0015517 329.1817 150.7530 15.21666139 13975 CAS-2T 1 41845U 16066E 17040.75953089 -.00000077 00000-0 00000 0 0 9993 2 41845 98.7805 53.3162 0365871 266.4214 89.5096 14.37697852 13188 Pegasus-1 1 41846U 16066F 17041.02293806 -.00000077 00000-0 00000 0 0 9999 2 41846 98.7816 53.4912 0368862 266.3978 89.4937 14.36874498 13213 STARS-C 1 41895U 98067KR 17040.16992746 .00015762 00000-0 22968-3 0 9994 2 41895 51.6478 316.0996 0006219 181.2246 178.8721 15.55874426 8027 BY70-1 1 41909U 16083C 17040.86266692 .00908360 24147-5 71545-3 0 9992 2 41909 97.5674 122.7528 0109320 201.6145 158.0667 16.02791861 6891 OBJECT 41930 1 41930U 98067KS 17036.82401924 .10543534 11630-4 66545-2 0 9992 2 41930 51.6370 330.4291 0018165 124.4217 237.6627 16.16537350 3109 Tancredo 1 1 41931U 98067KT 17040.75942568 .00026149 00000-0 36845-3 0 9997 2 41931 51.6545 313.2836 0010241 150.2300 209.8866 15.56386355 3684 ITF-2 1 41932U 98067KU 17040.83250665 .00016520 00000-0 24420-3 0 9995 2 41932 51.6440 313.0260 0008116 150.1107 210.0328 15.55428062 3699 EGG 1 41933U 98067KV 17038.19825588 .00015666 00000-0 23254-3 0 9998 2 41933 051.6446 326.1788 0007720 144.1346 216.0147 15.55365472003289 OBJECT 41934 1 41934U 98067KW 17040.19189554 .00008786 00000-0 13448-3 0 9997 2 41934 51.6469 316.2457 0009649 154.1852 205.9619 15.55179162 3687 AOBA-V3LOX3 1 41935U 98067KX 17040.19109369 .00012394 00000-0 18576-3 0 9991 2 41935 51.6481 316.2432 0007602 151.3499 208.7911 15.55331351 3695 TuPOD 1 41936U 98067KY 17040.82542049 .00033796 00000-0 47357-3 0 9996 2 41936 51.6440 312.9793 0008831 151.7232 208.4205 15.56409889 3177 OSNSAT 1 41939U 98067KZ 17040.18411342 .00020339 00000-0 29246-3 0 9995 2 41939 51.6510 316.1953 0009598 150.0343 210.1190 15.56007251 2942 /EX